Location: Julian California
(33.0790°N, 116.6010°W)
Time: 14:56:00
(UTC-07:00)

NOSS 2-2 (E) - Pass Details

Date: 19 May 2017
Orbit: 549 x 1659 km, 63.3° (Epoch: 21 May)

Event Time Altitude Azimuth Distance (km) Brightness Sun altitude
Rises 21:01:48 0° 194° (SSW) 2,717 6.6 -15.2°
Reaches altitude 10° 21:04:01 10° 188° (S) 1,808 5.7 -15.5°
Maximum altitude 21:07:46 43° 115° (ESE) 785 3.6 -16.2°
Drops below altitude 10° 21:11:48 10° 43° (NE) 1,953 6.1 -16.8°
Sets 21:14:17 0° 37° (NE) 2,966 7.1 -17.2°
